TIME,DELAY(SENSOR),PRES,T(CTD),SAL,OXYGEN,RAWTEMP,T(OPTODE),TCPHASE,FLUOR,BETA(BETA700),BETA(BETA412),BETA(BETA440),CDOM,C(CSC),ED(ED412.40),ED(ED444.00),ED(ED489.70),ED(ED554.30),LU(LU411.80),LU(LU443.40),LU(LU489.60),LU(LU554.10),COMP,TILTX,TILTX(TILTY),CHECK
1333748134,5807,497.3699951171875000,6.8337001800537110,34.2064018249511700,55.9894104003906250,593.1118774414062000,6.8065509796142580,51.8783988952636700,53,107,91,81,81,15218,2147751597,2147422180,2148002121,2147872283,2147630464,2147083437,2148247149,2147205824,847,4,13,56289
1333748261,5804,486.6499938964844000,6.9335999488830570,34.2032012939453100,61.8095207214355500,589.8103027343750000,6.9129390716552730,51.0402488708496100,53,106,89,81,82,15220,2147750345,2147420544,2147998921,2147875410,2147629650,2147087616,2148243062,2147209353,3508,4,13,3624
1333748402,5811,475.1000061035156000,7.0545001029968260,34.1958999633789060,66.7094116210937500,585.9547729492188000,7.0370497703552250,50.3478202819824200,51,108,88,81,82,15220,2147750445,2147424749,2148002834,2147871497,2147627446,2147087314,2148242395,2147203190,3045,4,13,64393
1333748541,5809,464.5499877929687500,7.0924000740051270,34.1898002624511700,71.2166366577148400,584.6873779296875000,7.0778179168701170,49.7530403137207000,52,110,92,81,81,15215,2147751698,2147420306,2148000886,2147873984,2147627593,2147084681,2148240859,2147205595,3224,4,13,45699
1333748724,5805,451.7000122070312500,7.2783999443054200,34.1777992248535160,78.7876281738281200,579.0056762695312000,7.2603950500488280,48.7471618652343750,52,110,89,81,81,15219,2147748964,2147421860,2148001152,2147872685,2147630116,2147087314,2148238948,2147201819,3319,4,13,8480
1333748863,5809,440.3200073242187500,7.4903001785278320,34.1638984680175800,88.3199386596679700,571.5864257812500000,7.4983792304992680,47.5258293151855500,51,110,88,81,81,15214,2147747986,2147422089,2148000301,2147875629,2147630125,2147093376,2148241618,2147205860,1343,4,13,33579
1333749034,5807,426.7999877929687500,7.7346000671386720,34.1613998413085940,99.1672668457031200,564.3214111328125000,7.7309441566467285,46.2230300903320300,51,110,90,80,81,15215,2147745636,2147423232,2148001554,2147873664,2147626358,2147095826,2148241216,2147205641,1846,4,13,59992
1333749161,5809,415.4899902343750000,8.1744003295898440,34.1581993103027340,108.9153976440429700,548.2974853515625000,8.2422933578491210,44.9496612548828100,51,113,88,82,78,15211,2147744438,2147423561,2148002084,2147872292,2147624859,2147099675,2148235968,2147209179,3060,4,13,31955
1333749276,5808,404.1400146484375000,8.6900997161865230,34.1753005981445300,114.3388977050781200,534.7277832031250000,8.6736774444580080,44.1847991943359400,50,109,90,82,79,15214,2147743131,2147420736,2148001673,2147872466,2147623707,2147097051,2148240411,2147206208,481,4,13,58129
1333749381,5808,392.5400085449219000,8.8638000488281250,34.1670989990234400,122.3923034667968800,529.0532226562500000,8.8536453247070310,43.3082008361816400,50,109,86,80,78,15215,2147743625,2147423122,2148001024,2147873865,2147619401,2147101513,2148230409,2147207058,1968,4,13,25026
1333749472,5807,381.8699951171875000,8.9997997283935550,34.1623001098632800,129.5081939697265600,524.6458740234375000,8.9932460784912110,42.5712585449218750,50,113,91,81,76,15212,2147747364,2147421641,2148000493,2147874249,2147620873,2147105746,2148234880,2147207698,1787,4,13,60687
1333749563,5809,370.9800109863281000,9.3839998245239260,34.1763000488281250,130.5782012939453000,512.4293823242188000,9.3794422149658200,42.2690505981445300,50,112,90,81,78,15209,2147742244,2147420114,2148000393,2147873627,2147617408,2147101321,2148230089,2147208356,1610,4,13,54371
1333749674,5805,358.9400024414062500,9.7322998046875000,34.1664009094238300,133.7252044677734400,502.1488952636719000,9.7035903930664060,41.8129081726074200,50,110,93,80,77,15215,2147740772,2147422235,2148002560,2147873051,2147619675,2147104164,2148226066,2147211428,2194,3,13,46122
1333749807,5807,349.1600036621094000,10.0270004272460940,34.1660003662109400,146.8123931884765600,491.4805908203125000,10.0391902923583980,40.5021095275878900,50,112,91,81,75,15213,2147736877,2147425417,2148003812,2147872795,2147616448,2147110445,2148223122,2147210002,1895,3,13,38134
1333750009,5805,337.5599975585937500,10.8338003158569340,34.1749000549316400,171.6894073486328000,465.6578979492187500,10.8483800888061520,38.1370582580566400,50,109,88,81,74,15214,2147732717,2147424850,2148000557,2147875730,2147613010,2147116754,2148224594,2147211821,502,4,13,15654
1333750148,5808,327.0199890136719000,11.5066003799438480,34.1927986145019500,187.5796051025390600,444.1794128417969000,11.5183401107788090,36.6875190734863300,49,113,92,80,73,15210,2147735515,2147423405,2148003904,2147872493,2147605796,2147114998,2148222592,2147210697,1347,3,13,34026
1333750283,5809,315.5400085449219000,11.8390998840332030,34.2061004638671900,196.7879943847656200,429.9642028808594000,11.9603204727172850,35.8669891357421900,48,111,93,80,71,15211,2147729664,2147427172,2148010102,2147870546,2147603785,2147124480,2148224987,2147211958,3478,3,14,18569
1333750397,5808,304.3900146484375000,12.3453998565673830,34.2028007507324200,198.5948028564453000,416.7684936523437500,12.3696699142456050,35.5443382263183600,49,112,89,80,71,15209,2147730578,2147429504,2148016082,2147870144,2147605357,2147127195,2148223405,2147210368,3237,3,13,41519
1333750512,5809,293.7500000000000000,12.9525003433227540,34.2274017333984400,197.6242065429687500,397.9094848632812500,12.9532604217529300,35.3064804077148440,49,109,88,81,69,15209,2147728301,2147432676,2148023168,2147873060,2147598875,2147131812,2148222061,2147215497,3271,3,13,60247
1333750641,5805,282.2900085449219000,13.7110004425048830,34.3115997314453100,199.5970001220703000,373.7641906738281000,13.6982202529907230,34.8107109069824200,50,120,91,82,70,15198,2147727360,2147431030,2148039012,2147870930,2147596086,2147140352,2148224128,2147215168,3558,3,14,15533
1333750768,5807,270.6300048828125000,14.0895996093750000,34.3470993041992200,204.1295013427734400,359.9956054687500000,14.1220197677612300,34.3285598754882800,49,115,91,82,69,15198,2147723346,2147439140,2148057444,2147870226,2147594953,2147151030,2148230061,2147216896,2541,4,13,17507
1333750897,5805,258.6400146484375000,14.7980003356933600,34.3963012695312500,201.9131927490234400,334.8294982910156000,14.8950595855712890,34.0804214477539060,50,115,91,83,71,15197,2147723620,2147450523,2148088731,2147871616,2147590262,2147157906,2148239369,2147217033,603,3,14,16086
1333751024,5807,247.5399932861328000,15.6714000701904300,34.4668006896972660,200.2330932617187500,311.0177917480469000,15.6249103546142580,33.8270797729492200,50,117,88,82,70,15197,2147722404,2147468306,2148128448,2147872182,2147589376,2147171712,2148258148,2147220242,2853,3,14,59600
1333751163,5807,236.6499938964843800,16.0881004333496100,34.5037002563476560,199.0852966308593800,295.7362976074219000,16.0926494598388670,33.6710891723632800,51,112,93,82,69,15199,2147731419,2147498230,2148191899,2147873298,2147586322,2147192621,2148281097,2147224292,321,3,14,25309
1333751328,5810,226.1000061035156200,16.7602005004882800,34.5702018737793000,198.6430053710937500,274.1498107910156000,16.7527198791503900,33.3836097717285160,52,113,93,81,68,15200,2147731044,2147536996,2148272877,2147871488,2147585097,2147213796,2148320795,2147228416,3202,3,14,15583
1333751515,5811,214.9299926757812500,17.3477993011474600,34.6370010375976560,200.7371978759765600,255.7180938720703000,17.3158893585205080,32.9948616027832000,54,109,91,82,68,15198,2147746788,2147596909,2148394660,2147872064,2147590948,2147252653,2148377664,2147231140,1454,3,15,50705
1333751673,5812,202.9299926757812500,18.1592998504638670,34.7196998596191400,204.2536926269531200,228.0111999511718800,18.1620693206787100,32.3993186950683600,56,112,91,81,68,15196,2147781824,2147708297,2148586806,2147869650,2147598345,2147319040,2148462089,2147242285,2431,3,15,58165
1333754083,5811,98.0999984741211000,23.8715991973876950,35.1379013061523440,240.3238983154297000,42.1756095886230500,23.8652496337890620,28.1294097900390620,79,122,94,86,59,15092,2172610185,2178381558,2181722194,2148586166,2162549056,2165642304,2165488886,2148761856,855,1,16,48017
1333754138,5806,94.8799972534179700,23.8869991302490230,35.1371994018554700,240.7126007080078000,41.6354789733886700,23.8819904327392580,28.1053295135498050,79,122,93,84,59,15089,2176390701,2182612717,2185671387,2148762093,2165277120,2168598948,2167793170,2148981147,1278,1,17,2536
1333754193,5804,91.5000000000000000,23.9564990997314450,35.1454010009765600,240.6596984863281200,39.4098701477050800,23.9509792327880860,28.0802097320556640,78,123,92,85,60,15092,2180180763,2186751168,2189445558,2148972434,2168112667,2171559680,2170034441,2149203437,1623,1,16,6724
1333754248,5806,88.3499984741211000,23.9936008453369140,35.1565017700195300,240.8217010498047000,38.1129608154296900,23.9911899566650400,28.0569095611572270,78,124,95,86,58,15093,2185578395,2192706112,2195252342,2149265161,2172049563,2175947410,2173556946,2149546770,1221,1,17,53730
1333754303,5810,85.3199996948242200,24.0482006072998050,35.1702995300293000,240.8657073974609400,36.3503799438476560,24.0458507537841800,28.0329704284667970,76,121,89,83,59,15087,2188631195,2195606208,2197585746,2149477641,2174994779,2178926866,2175744045,2149763163,1068,1,16,32646
1333754358,5807,82.4899978637695300,24.0872993469238280,35.1790008544921900,241.3766937255859400,35.1003799438476560,24.0846290588378900,27.9947395324707030,74,122,95,84,57,15083,2196240740,2204166710,2205959049,2149957988,2180285568,2184597595,2180198555,2150209371,960,1,16,9898
1333754415,5809,79.7200012207031200,24.1308994293212900,35.1893005371093750,241.5059967041015600,33.6142501831054700,24.1307392120361330,27.9705791473388670,74,121,93,84,59,15091,2201160018,2209352210,2210652525,2150347510,2184609481,2188918125,2183260233,2150527963,1039,1,17,10080
1333754470,5809,77.1800003051757800,24.1639995574951170,35.1940002441406250,241.7821960449218800,32.5998916625976560,24.1622200012207030,27.9458808898925780,74,121,90,85,60,15088,2206400210,2214895433,2215607661,2150789906,2188974829,2193240804,2186151680,2150855716,1194,2,17,60438
1333754525,5804,74.8000030517578100,24.2859992980957030,35.2095985412597660,241.5706024169922000,28.3897209167480470,24.2929306030273440,27.9031105041503900,71,120,91,85,57,15092,2210074971,2218336246,2218078756,2151103369,2192958729,2196891172,2188497956,2151107904,1406,1,17,16533
1333754580,5809,72.6600036621093800,24.3687992095947270,35.2224006652832000,241.3215026855468800,26.0377407073974600,24.3659992218017580,27.8852405548095700,67,120,92,85,60,15095,2216732096,2225138422,2224229860,2151712438,2199153581,2203065517,2192896210,2151583204,1471,1,16,17142
1333754635,5807,70.4400024414062500,24.4116992950439450,35.2142982482910160,241.2953033447265600,24.7995395660400400,24.4044704437255860,27.8709392547607420,66,119,95,85,58,15088,2222968009,2231139638,2229730934,2152350985,2205112301,2208968274,2197025572,2152025682,921,1,17,65203
1333754690,5808,68.2799987792968800,24.3950996398925780,35.1888999938964840,241.8773040771484400,25.0403995513916000,24.3969802856445300,27.8480606079101560,64,120,92,83,56,15088,2230438637,2239154779,2237809353,2153254528,2211748306,2215370624,2201529161,2152559350,270,1,17,54296
1333754747,5809,65.7900009155273400,24.3868999481201170,35.1773986816406250,242.3426055908203000,25.2244091033935550,24.3912696838378900,27.8298606872558600,65,122,93,84,60,15085,2236212891,2244481161,2242174838,2154051200,2219768429,2223230281,2206965933,2153156214,477,1,16,53631
1333754802,5808,63.1800003051757800,24.3869991302490230,35.1682014465332000,242.5930023193359400,25.2429008483886720,24.3906898498535160,27.8190898895263670,64,121,92,84,59,15086,2244186587,2252644534,2249910966,2155282121,2227939821,2230971931,2212327542,2153831021,436,1,16,63131
1333754857,5808,60.4900016784668000,24.3873004913330080,35.1525001525878900,242.8704986572265600,25.1468105316162100,24.3936805725097660,27.8055801391601560,60,121,95,85,58,15078,2257521014,2266802706,2263527213,2157291364,2239215213,2241803190,2219991753,2154797321,12,2,16,27011
1333754912,5807,57.7799987792968750,24.3925991058349600,35.1328010559082000,243.0325927734375000,24.9387092590332030,24.4001407623291000,27.7957992553710940,61,120,94,84,56,15075,2269364763,2279177782,2275597613,2159375936,2249772790,2251775433,2226954468,2155806070,179,1,17,49087
1333754967,5808,55.1899986267089840,24.3752002716064450,35.0792999267578100,243.1054992675781200,25.4315299987792970,24.3848304748535160,27.7986907958984380,61,120,93,86,58,15084,2275896658,2285116132,2280791872,2160945517,2262317997,2263981147,2235486893,2156870070,431,1,16,48371
1333755022,5807,53.1100006103515600,24.3617000579834000,35.0591011047363300,243.2577972412109400,25.7721996307373050,24.3742408752441400,27.7962093353271500,59,119,93,84,58,15074,2274484992,2281891712,2276298422,2161364873,2267060909,2267193874,2236981851,2157204690,3492,1,17,64039
1333755079,5807,51.1800003051757800,24.3563003540039060,35.0441017150878900,243.4371948242187500,25.9207992553710940,24.3696308135986330,27.7900791168212900,59,121,93,85,59,15079,2298504137,2309421302,2304337874,2165533312,2284415789,2284275931,2249288594,2158826569,3063,1,16,17146
1333755146,5809,49.2999992370605500,24.3423004150390620,35.0150985717773440,243.7848052978515600,26.3905105590820300,24.3550300598144530,27.7806892395019530,59,122,94,83,58,15063,2301570706,2312257316,2306271652,2167486665,2292557366,2290643300,2252539620,2159591433,2453,1,17,16256
1333755237,5803,47.2099990844726560,24.3656997680664060,34.9992980957031250,243.5390930175781200,25.7469291687011720,24.3750305175781250,27.7834300994873050,58,119,90,84,57,15073,2314290029,2326089673,2319902848,2170868690,2308531712,2305663771,2262504612,2161206345,1884,1,17,48497
1333755316,5809,45.3499984741210940,24.3763999938964840,34.9836006164550800,243.4785003662109400,25.2829208374023440,24.3894500732421880,27.7805805206298830,56,119,97,86,57,15066,2323572132,2336086189,2330783734,2174743305,2320025773,2316080521,2269452672,2162476251,1592,1,17,9699
1333755405,5808,42.7099990844726560,24.3936004638671880,34.9500007629394500,243.3190002441406200,24.8256092071533200,24.4036598205566400,27.7819690704345700,54,120,92,83,57,15075,2326264493,2336786889,2331215634,2178105554,2338262500,2332147501,2279971108,2164237897,1227,1,17,57591
1333755460,5807,40.2700004577636700,24.3952999114990230,34.9491996765136700,243.2198028564453000,24.6896896362304700,24.4078807830810550,27.7845191955566400,55,119,93,85,60,15076,2337397010,2348251556,2343522112,2182821897,2350760100,2342546422,2286279378,2165811456,891,1,16,49715
1333755515,5810,37.6100006103515600,24.3962001800537100,34.9478988647460940,243.4313049316406200,24.6327495574951170,24.4096508026123050,27.7745094299316400,54,119,94,85,60,15070,2362025627,2375782518,2373442752,2194168932,2379300068,2369295597,2304889746,2169430656,766,2,16,34222
1333755570,5808,34.9000015258789060,24.3955001831054700,34.9477996826171900,243.4062042236328000,24.5455093383789060,24.4123592376709000,27.7746391296386720,53,122,93,86,54,15071,2368037613,2379905700,2376275062,2200416320,2398997092,2384910208,2314072347,2171325979,555,1,16,29146
1333755625,5806,32.2200012207031250,24.4001998901367200,34.9462013244628900,243.6672973632812500,24.3263893127441400,24.4191703796386720,27.7604808807373050,52,118,94,84,60,15078,2391377508,2406339163,2405248000,2213385865,2426831890,2410928118,2332237915,2175675849,376,1,16,63792
1333755680,5809,29.5900001525878900,24.4006004333496100,34.9463996887207000,243.6842041015625000,24.2341403961181640,24.4220409393310550,27.7585296630859380,52,118,92,86,56,15081,2393476233,2406875538,2405347337,2221747812,2446040393,2427068781,2342446217,2178336841,152,1,16,55753
1333755737,5808,26.8999996185302730,24.4029006958007800,34.9452018737793000,243.7012939453125000,24.1392402648925780,24.4249897003173830,27.7566299438476560,51,120,95,85,57,15079,2404909302,2421110875,2422144000,2234593965,2460822390,2438762294,2349178496,2181358802,3388,1,16,55183
1333755792,5804,24.4099998474121100,24.4036998748779300,34.9450988769531250,243.6641998291015600,24.0884895324707030,24.4265708923339840,27.7576408386230470,52,119,92,85,54,15091,2422426176,2440744109,2442881115,2251476315,2488715766,2462404653,2364349421,2185989028,2940,1,16,26102
